Location: Brachbach
(49.1847°N, 9.7240°E)
Time: 23:48:42
(UTC+00:00)

SEEDS - Visible Passes

Search period start: 13 March 2026 00:00
Search period end: 23 March 2026 00:00
Orbit: 477 x 479 km, 97.8° (Epoch: 13 March)

Date Brightness Start Highest point End Pass type
(mag) Time Alt. Az. Time Alt. Az. Time Alt. Az.
13 Mar ? 03:36:42 10° ENE 03:38:02 12° E 03:39:22 10° ESE visible
14 Mar ? 04:41:46 10° NNE 04:45:19 65° ESE 04:48:51 10° S visible
15 Mar ? 04:15:36 10° NNE 04:18:48 31° E 04:22:00 10° SSE visible
16 Mar ? 03:49:51 10° NE 03:52:10 16° E 03:54:27 10° SE visible
17 Mar ? 04:55:36 10° NNE 04:59:12 87° WNW 05:02:45 10° SSW visible
18 Mar ? 04:29:11 10° NNE 04:32:37 44° E 04:36:02 10° S visible
19 Mar ? 04:03:03 10° NE 04:05:54 22° E 04:08:44 10° SSE visible
20 Mar ? 03:37:48 10° ENE 03:39:03 11° E 03:40:17 10° ESE visible
21 Mar ? 04:42:30 10° NNE 04:46:03 63° ESE 04:49:34 10° S visible
22 Mar ? 04:16:05 10° NNE 04:19:16 30° E 04:22:26 10° SSE visible
